sat.trackr.live / text

‹ back to catalog

STARLINK-4158

NORAD 53027 · 2022-076AT

PAYLOAD ACTIVE UNKNOWN

§ Identity

Operator
Country
US
Launch date
2022-07-07
Launch site
AFETR
Launch vehicle
Mass (kg)
RCS (m²)

Purposes: comms

External: N2YO · Heavens-Above · Gunter

§ Orbital elements

Epoch: 2026-09-20T00:07:01.473024Z

Period
93.85 min
Inclination
53.1595°
Eccentricity
0.0001225
Mean motion
15.34392466 rev/d
Perigee alt
461.9 km
Apogee alt
463.6 km
Semi-major
6,840.9 km
B*
2.8014e-5
RAAN
275.8238°
Arg perigee
87.7732°
Mean anomaly
272.3411°
Rev number
23,254

§ Raw data

STARLINK-41581 53027U 22076AT  26263.00487816  .00000570  00000+0  28014-4 0  99972 53027  53.1595 275.8238 0001225  87.7732 272.3411 15.34392466232545

JSON: /api/v1/satellites/53027 · /tle

For live sub-satellite position, see the globe view (requires WebGL).

§ Visibility from observer

Set your observer location to see the next 7 days of passes ≥ 10°. The values pass through the URL so the page stays shareable.

No JS? Fill the form by hand. The geolocation button needs JavaScript.